Regional Weather Roundup
Issued by NWS

Home | Current Version | Previous Version | Graphics & Text | Print | Product List | Glossary On
Versions: 1 2 3 4 5 6 7 8 9 10 11 12 13 14 15 16 17 18 19 20 21 22 23 24 25 26 27
000
ASUS45 KCYS 020510
RWRWY

WYOMING REGIONAL WEATHER ROUNDUP
NATIONAL WEATHER SERVICE CHEYENNE WY
1100 PM MDT SUN MAY 01 2016

NOTE:  "FAIR" INDICATES FEW OR NO CLOUDS BELOW 12,000 FEET
WITH NO SIGNIFICANT WEATHER AND/OR OBSTRUCTIONS TO VISIBILITY.

WYZ001-020600-
YELLOWSTONE NATIONAL PARK

CITY           SKY/WX    TMP DP  RH WIND       PRES   REMARKS
LK YELLOWSTONE   N/A     27  19  72 W3        30.29R
W YELLOWSTONE  NOT AVBL

$$
WYZ002>013-054>058-071-098>099-020600-
NORTHERN WYOMING

CITY           SKY/WX    TMP DP  RH WIND       PRES   REMARKS
JACKSON        FAIR      39  21  48 N13       30.22R WCI  32
CODY           FAIR      43  27  52 W5        30.25R
GREYBULL       FAIR      46  26  45 SE3       30.22R
WORLAND        FAIR      41  33  73 S7        30.24R
SHERIDAN       FAIR      36  31  82 S6        30.23S WCI  31
BUFFALO          N/A    N/A N/A N/A MISG      30.26S
GILLETTE       FAIR      32  29  88 S5        30.24F WCI  27
HULETT         FAIR      37  32  81 SW6       30.25S WCI  33
NEWCASTLE      FAIR      41  28  60 SE5       30.27R

$$
WYZ014>020-022>026-101>103-020600-
CENTRAL WYOMING

CITY           SKY/WX    TMP DP  RH WIND       PRES   REMARKS
BIG PINEY      FAIR      28  19  69 W6        30.27R WCI  22
PINEDALE       FAIR      32  19  59 CALM      30.29R
DUBOIS         NOT AVBL
LANDER         FAIR      39  25  57 S5        30.27R
RIVERTON       FAIR      43  27  53 SE5       30.28R
CASPER         FAIR      32  26  78 W7        30.27R WCI  26
DOUGLAS        FAIR      32  27  81 CALM      30.28S

$$
WYZ021-027>030-104>119-020600-
SOUTHERN WYOMING

CITY           SKY/WX    TMP DP  RH WIND       PRES   REMARKS
EVANSTON       FAIR      35  23  61 E18       30.22R WCI  24
KEMMERER         N/A     32  23  69 E12       30.26R WCI  23
FORT BRIDGER   CLEAR     34  28  80 E10       30.28R WCI  26
ROCK SPRINGS   FAIR      35  24  64 E10       30.26R WCI  27
DIXON          FAIR      35  18  48 E9        30.19R WCI  28
RAWLINS        FAIR      29  22  75 E10       30.27R WCI  20
SARATOGA       FAIR      30  21  69 S13       30.25S WCI  20
LARAMIE        FAIR      24  19  81 CALM      30.28R
CHEYENNE       FAIR      29  22  75 W9        30.28S WCI  20
TORRINGTON     FAIR      37  31  78 SW5       30.26S WCI  33
PINE BLUFFS    FAIR      28  27  93 W7        30.28F WCI  21

$$




USA.gov is the U.S. government's official web portal to all federal, state and local government web resources and services.